• In Hungary
  • List of Countries
  • For 7 days
  • Water Temperature
  • Satellite Maps
  • Weather Map
  • News
  • Weather Widgets
  • user-avatar
    Login

    Hourly Weather Horodyni

    Today, 22 October, Sunday

    Time Temperature Precipitation Wind Pressure Humidity
    00:00 +9°C° 0 mm 3 mps 743 mmHg 91%
    01:00 +8°C° 0 mm 3 mps 743 mmHg 89%
    02:00 +8°C° 0 mm 3 mps 744 mmHg 87%
    03:00 +8°C° 0 mm 3 mps 744 mmHg 86%
    04:00 +7°C° 0 mm 3 mps 744 mmHg 84%
    05:00 +7°C° 0 mm 3 mps 744 mmHg 83%
    06:00 +7°C° 0 mm 3 mps 744 mmHg 82%
    07:00 +7°C° 0 mm 3 mps 745 mmHg 81%
    08:00 +7°C° 0 mm 3 mps 745 mmHg 80%
    09:00 +7°C° 0 mm 3 mps 745 mmHg 78%
    10:00 +6°C° 0 mm 4 mps 745 mmHg 76%
    11:00 +7°C° 0 mm 4 mps 745 mmHg 73%
    12:00 +8°C° 0 mm 3 mps 745 mmHg 71%
    13:00 +9°C° 0 mm 3 mps 745 mmHg 69%
    14:00 +9°C° 0 mm 3 mps 745 mmHg 66%
    15:00 +9°C° 0 mm 3 mps 745 mmHg 68%
    16:00 +8°C° 0 mm 3 mps 744 mmHg 70%
    17:00 +8°C° 0 mm 3 mps 744 mmHg 72%
    18:00 +8°C° 0 mm 3 mps 744 mmHg 73%
    19:00 +7°C° 0 mm 3 mps 744 mmHg 74%
    20:00 +6°C° 0 mm 4 mps 744 mmHg 75%
    21:00 +6°C° 0 mm 4 mps 744 mmHg 74%
    22:00 +6°C° 0 mm 4 mps 744 mmHg 74%
    23:00 +6°C° 0 mm 4 mps 744 mmHg 74%

    Tomorrow, 23 October, Monday

    Time Temperature Precipitation Wind Pressure Humidity
    00:00 +6°C° 0 mm 4 mps 743 mmHg 74%
    01:00 +6°C° 0 mm 4 mps 743 mmHg 74%
    02:00 +6°C° 0 mm 4 mps 743 mmHg 74%
    03:00 +6°C° 0 mm 4 mps 743 mmHg 75%
    04:00 +5°C° 0 mm 4 mps 742 mmHg 76%
    05:00 +5°C° 0 mm 4 mps 742 mmHg 76%
    06:00 +5°C° 0 mm 4 mps 742 mmHg 77%
    07:00 +5°C° 0 mm 4 mps 742 mmHg 77%
    08:00 +5°C° 0 mm 4 mps 742 mmHg 77%
    09:00 +5°C° 0 mm 4 mps 742 mmHg 75%
    10:00 +6°C° 0 mm 4 mps 742 mmHg 74%
    11:00 +6°C° 0 mm 4 mps 742 mmHg 72%
    12:00 +6°C° 0.1 mm 4 mps 742 mmHg 72%
    13:00 +7°C° 0.1 mm 4 mps 742 mmHg 71%
    14:00 +7°C° 0.1 mm 4 mps 742 mmHg 71%
    15:00 +7°C° 0.2 mm 4 mps 742 mmHg 73%
    16:00 +7°C° 0.2 mm 4 mps 742 mmHg 74%
    17:00 +7°C° 0.2 mm 4 mps 742 mmHg 76%
    18:00 +6°C° 0.4 mm 4 mps 742 mmHg 77%
    19:00 +6°C° 0.4 mm 5 mps 742 mmHg 77%
    20:00 +6°C° 0.4 mm 5 mps 742 mmHg 77%
    21:00 +5°C° 0.8 mm 5 mps 743 mmHg 77%
    22:00 +5°C° 0.8 mm 5 mps 743 mmHg 77%
    23:00 +5°C° 0.8 mm 4 mps 743 mmHg 77%

    Day after tomorrow, 24 October, Tuesday

    Time Temperature Precipitation Wind Pressure Humidity
    00:00 +4°C° 0.5 mm 4 mps 744 mmHg 77%
    01:00 +4°C° 0.5 mm 4 mps 744 mmHg 77%
    02:00 +3°C° 0.5 mm 5 mps 744 mmHg 77%
    03:00 +4°C° 0.4 mm 4 mps 745 mmHg 77%
    04:00 +3°C° 0.4 mm 4 mps 745 mmHg 77%
    05:00 +3°C° 0.4 mm 4 mps 745 mmHg 77%
    06:00 +3°C° 0.3 mm 4 mps 746 mmHg 77%
    07:00 +2°C° 0.3 mm 5 mps 747 mmHg 76%
    08:00 +2°C° 0.3 mm 5 mps 747 mmHg 76%
    09:00 +3°C° 0.1 mm 4 mps 748 mmHg 73%
    10:00 +4°C° 0.1 mm 4 mps 748 mmHg 71%
    11:00 +4°C° 0.1 mm 4 mps 749 mmHg 68%
    12:00 +5°C° 0 mm 4 mps 749 mmHg 66%
    13:00 +5°C° 0 mm 4 mps 749 mmHg 64%
    14:00 +6°C° 0 mm 4 mps 749 mmHg 62%
    15:00 +5°C° 0 mm 3 mps 750 mmHg 65%
    16:00 +4°C° 0 mm 3 mps 750 mmHg 68%
    17:00 +5°C° 0 mm 2 mps 750 mmHg 71%
    18:00 +4°C° 0 mm 2 mps 751 mmHg 72%
    19:00 +4°C° 0 mm 2 mps 751 mmHg 73%
    20:00 +3°C° 0 mm 2 mps 752 mmHg 75%
    21:00 +3°C° 0 mm 2 mps 752 mmHg 76%
    22:00 +3°C° 0 mm 2 mps 752 mmHg 77%
    23:00 +2°C° 0 mm 2 mps 752 mmHg 78%

    25 October, Wednesday

    Time Temperature Precipitation Wind Pressure Humidity
    00:00 +2°C° 0 mm 2 mps 752 mmHg 78%
    01:00 +1°C° 0 mm 2 mps 752 mmHg 79%
    02:00 +1°C° 0 mm 2 mps 752 mmHg 80%
    03:00 +1°C° 0 mm 2 mps 752 mmHg 80%
    04:00 +1°C° 0 mm 2 mps 752 mmHg 80%
    05:00 -1°C° 0 mm 2 mps 752 mmHg 81%
    06:00 +1°C° 0 mm 2 mps 752 mmHg 79%
    07:00 +1°C° 0 mm 2 mps 752 mmHg 78%
    08:00 +1°C° 0 mm 2 mps 752 mmHg 76%
    09:00 +3°C° 0 mm 2 mps 753 mmHg 70%
    10:00 +4°C° 0 mm 2 mps 753 mmHg 64%
    11:00 +5°C° 0 mm 2 mps 753 mmHg 58%
    12:00 +6°C° 0 mm 2 mps 752 mmHg 56%
    13:00 +7°C° 0 mm 2 mps 752 mmHg 55%
    14:00 +8°C° 0 mm 2 mps 752 mmHg 53%
    15:00 +7°C° 0 mm 2 mps 752 mmHg 58%
    16:00 +6°C° 0 mm 2 mps 751 mmHg 63%
    17:00 +5°C° 0 mm 2 mps 751 mmHg 68%
    18:00 +5°C° 0 mm 2 mps 751 mmHg 70%
    19:00 +3°C° 0 mm 3 mps 751 mmHg 72%
    20:00 +3°C° 0 mm 3 mps 750 mmHg 74%
    21:00 +3°C° 0 mm 3 mps 750 mmHg 74%
    22:00 +4°C° 0 mm 4 mps 750 mmHg 73%
    23:00 +5°C° 0 mm 5 mps 749 mmHg 73%

    26 October, Thursday

    Time Temperature Precipitation Wind Pressure Humidity
    00:00 +5°C° 0 mm 5 mps 749 mmHg 74%
    01:00 +5°C° 0 mm 5 mps 748 mmHg 75%
    02:00 +6°C° 0 mm 5 mps 748 mmHg 76%
    03:00 +5°C° 0.1 mm 6 mps 747 mmHg 77%
    04:00 +7°C° 0.1 mm 6 mps 746 mmHg 78%
    05:00 +7°C° 0.1 mm 6 mps 746 mmHg 80%
    06:00 +8°C° 0.4 mm 6 mps 746 mmHg 84%
    07:00 +9°C° 0.4 mm 6 mps 746 mmHg 88%
    08:00 +10°C° 0.4 mm 6 mps 746 mmHg 92%
    09:00 +10°C° 0.1 mm 6 mps 746 mmHg 90%
    10:00 +11°C° 0.1 mm 6 mps 746 mmHg 88%
    11:00 +11°C° 0.1 mm 6 mps 747 mmHg 86%
    12:00 +13°C° 0.1 mm 6 mps 747 mmHg 81%
    13:00 +13°C° 0.1 mm 6 mps 746 mmHg 76%
    14:00 +14°C° 0.1 mm 7 mps 746 mmHg 72%
    15:00 +13°C° 0 mm 6 mps 746 mmHg 74%
    16:00 +12°C° 0 mm 5 mps 746 mmHg 77%
    17:00 +10°C° 0 mm 5 mps 746 mmHg 79%
    18:00 +10°C° 0 mm 5 mps 746 mmHg 79%
    19:00 +10°C° 0 mm 5 mps 746 mmHg 79%
    20:00 +10°C° 0 mm 5 mps 746 mmHg 78%
    21:00 +9°C° 0 mm 5 mps 746 mmHg 78%
    22:00 +9°C° 0 mm 5 mps 745 mmHg 78%
    23:00 +10°C° 0 mm 4 mps 745 mmHg 78%

    27 October, Friday

    Time Temperature Precipitation Wind Pressure Humidity
    00:00 +8°C° 0 mm 4 mps 745 mmHg 80%
    01:00 +8°C° 0 mm 5 mps 745 mmHg 82%
    02:00 +8°C° 0 mm 5 mps 744 mmHg 83%
    03:00 +8°C° 0 mm 4 mps 744 mmHg 84%
    04:00 +8°C° 0 mm 4 mps 743 mmHg 86%
    05:00 +8°C° 0 mm 4 mps 742 mmHg 87%
    06:00 +8°C° 0.5 mm 4 mps 742 mmHg 89%
    07:00 +8°C° 0.5 mm 4 mps 741 mmHg 92%
    08:00 +8°C° 0.5 mm 4 mps 740 mmHg 94%
    09:00 +8°C° 1.5 mm 4 mps 739 mmHg 93%
    10:00 +10°C° 1.5 mm 4 mps 739 mmHg 93%
    11:00 +10°C° 1.5 mm 4 mps 738 mmHg 92%
    12:00 +10°C° 0.4 mm 4 mps 738 mmHg 91%
    13:00 +10°C° 0.4 mm 4 mps 737 mmHg 90%
    14:00 +9°C° 0.4 mm 5 mps 736 mmHg 89%
    15:00 +10°C° 1 mm 4 mps 736 mmHg 90%
    16:00 +8°C° 1 mm 4 mps 735 mmHg 91%
    17:00 +8°C° 1 mm 4 mps 735 mmHg 92%
    18:00 +7°C° 1.1 mm 4 mps 735 mmHg 91%
    19:00 +7°C° 1.1 mm 5 mps 734 mmHg 90%
    20:00 +7°C° 1.1 mm 5 mps 734 mmHg 89%
    21:00 +7°C° 0.2 mm 6 mps 734 mmHg 88%
    22:00 +7°C° 0.2 mm 6 mps 735 mmHg 87%
    23:00 +7°C° 0.2 mm 6 mps 735 mmHg 86%
    Show more